Wind_Speed
13 13 10 6 6 7 8 8 7 7 9 4 4 6 8 10 10 11 12 14 15 16 16 16 17 17 17 17 16 14 13 14 13 11 10 8 6 6 5 4 4 4 5 6
14 13 11 11 12 12 11 8 5 8 9 5 4 6 8 10 11 12 13 13 14 15 15 16 16 17 18 18 17 15 14 13 12 12 11 9 8 6 5 5 4 4 5 5
14 11 13 14 13 12 10 8 7 9 9 5 5 7 10 12 13 13 13 13 13 14 15 16 16 17 18 18 17 15 14 13 12 11 11 10 8 7 6 6 5 6 6 6
17 16 15 14 13 12 9 10 11 10 7 5 6 11 13 13 12 13 14 14 14 14 15 15 16 17 18 18 17 15 14 13 12 11 11 10 9 8 7 6 7 7 7 7
19 19 18 16 14 13 12 12 11 9 8 7 6 10 13 13 10 11 13 14 15 15 15 15 15 17 17 17 16 15 15 13 12 12 11 10 9 9 8 7 7 7 7 7
21 20 19 17 16 15 14 12 9 7 7 8 7 9 12 13 11 12 14 15 15 14 14 14 15 17 17 17 15 15 15 14 13 12 11 10 9 8 8 7 6 7 7 7
23 22 21 19 17 16 15 12 9 7 8 8 8 9 13 15 15 15 15 15 15 14 14 13 14 16 17 17 15 14 14 13 13 13 11 11 10 9 8 7 6 7 6 6
23 23 22 21 19 17 15 13 11 8 8 8 8 10 13 15 16 16 15 14 13 13 13 13 14 15 16 16 15 15 14 13 13 13 12 11 10 9 9 8 7 7 6 7
20 20 21 22 20 19 16 15 13 12 13 13 13 10 14 17 16 15 13 13 13 12 13 13 13 14 15 15 16 16 15 14 14 13 12 11 11 10 9 8 8 7 7 7
21 18 19 21 22 21 19 16 15 17 16 14 13 12 14 15 15 15 14 13 12 12 13 13 13 13 14 16 16 16 15 14 14 13 12 12 11 11 10 10 10 9 8 8
27 22 20 23 23 21 21 20 19 18 17 14 14 15 14 15 15 15 15 14 13 13 13 14 14 14 15 16 16 15 15 15 15 14 13 12 12 12 11 10 10 10 10 10
30 26 22 23 23 21 21 20 20 21 20 18 15 16 15 14 14 14 15 15 14 14 13 15 15 15 15 16 17 16 16 16 16 15 14 14 13 13 13 12 12 11 11 11
32 30 27 23 22 22 22 21 20 19 18 17 15 17 19 16 16 17 17 16 15 15 14 15 15 16 16 16 17 17 16 16 16 15 15 15 14 14 14 14 13 13 13 13
33 33 30 24 20 20 21 22 21 21 20 19 17 19 19 19 17 19 18 17 16 16 16 15 15 16 16 17 16 17 17 17 17 17 16 16 15 15 15 14 14 14 14 14
36 35 34 29 22 19 20 20 21 23 23 20 18 18 19 20 20 21 20 19 17 17 17 16 16 16 17 17 17 17 18 18 18 18 18 17 17 16 16 16 16 16 15 15
36 36 35 33 28 23 22 21 20 21 22 23 20 19 21 23 24 24 22 21 19 18 17 17 17 17 18 17 17 18 18 19 19 19 19 18 17 16 17 17 17 17 17 17
35 35 34 33 30 27 27 25 22 22 22 22 22 23 24 27 27 27 24 22 21 20 19 19 18 19 19 17 18 18 19 20 20 20 20 19 19 19 19 19 19 18 18 19
35 34 34 31 30 31 28 25 24 23 22 22 23 26 29 31 30 28 26 23 22 21 21 20 20 20 19 19 20 20 20 20 21 21 21 21 21 20 20 21 21 20 20 20
35 34 33 32 29 28 27 25 23 23 24 25 26 28 29 29 29 28 26 25 24 23 22 22 21 21 21 21 21 22 22 21 22 22 22 23 23 22 22 22 22 21 20 21
36 35 34 33 30 26 25 25 25 25 28 29 30 30 29 28 29 27 26 25 24 24 23 23 23 23 23 23 23 23 23 23 23 23 24 24 24 24 24 23 23 22 22 22
36 35 35 33 31 28 28 26 27 28 30 31 30 30 30 29 29 27 26 25 25 25 24 24 24 24 24 24 24 24 24 24 25 25 25 25 25 25 25 25 24 23 23 23
35 35 35 34 32 30 30 29 31 32 31 31 31 29 29 29 29 28 28 26 26 26 26 26 25 25 25 25 25 25 25 26 26 26 26 26 26 27 26 26 25 25 25 25
33 33 32 34 37 37 35 35 35 34 33 31 31 30 30 30 29 29 29 28 28 27 27 27 27 27 27 26 26 26 26 27 27 27 27 27 27 28 26 26 26 26 26 26
36 36 35 37 39 40 39 38 36 35 34 33 33 32 32 31 30 30 30 30 29 28 28 28 28 28 28 27 27 28 28 29 29 28 28 28 29 28 27 27 27 27 27 27
37 37 38 39 40 41 41 39 37 36 34 33 33 33 33 32 31 31 31 30 29 29 29 29 29 29 29 29 29 29 30 30 30 29 29 29 29 29 28 28 28 28 28 27
37 39 40 42 42 41 41 41 37 36 36 35 34 34 34 33 32 32 31 31 31 31 30 30 30 30 30 30 31 31 31 30 30 30 30 29 29 29 29 29 28 28 28 28
Wind_Direction
202 199 190 183 196 205 198 198 224 251 268 270 267 283 300 311 325 327 332 339 351 352 356 355 356 356 357 356 355 355 354 353 351 350 351 348 335 321 320 313 298 276 269 258
207 208 202 201 212 211 205 202 239 275 276 275 259 269 291 308 320 324 327 330 343 349 352 353 352 354 354 353 353 352 351 349 349 350 349 349 345 334 323 313 299 285 277 268
209 212 217 214 214 213 210 205 216 241 270 298 304 293 277 293 311 318 323 325 335 344 347 350 351 351 351 351 351 348 347 346 345 345 344 340 339 333 322 305 295 281 271 267
213 215 222 219 217 218 219 226 224 228 240 263 277 285 281 282 307 321 321 324 329 339 343 345 346 348 349 348 348 348 346 345 343 339 337 337 334 329 324 316 295 286 275 270
218 220 224 222 219 219 213 226 233 232 235 233 245 274 291 290 293 312 317 319 324 332 338 341 343 344 346 346 346 347 346 343 340 339 337 337 336 331 330 321 301 294 283 271
218 225 228 227 224 226 225 231 235 239 242 248 246 258 277 282 285 299 305 310 316 322 330 336 339 342 344 345 344 343 346 346 342 340 340 340 338 335 334 332 319 309 293 278
223 226 231 230 227 231 231 231 235 256 267 261 253 250 264 275 282 288 292 300 309 315 322 327 334 338 340 343 343 342 344 344 343 341 342 340 338 335 335 336 327 318 305 281
230 232 234 233 229 231 235 227 218 227 268 281 261 240 256 271 280 288 294 297 305 311 318 322 329 334 337 341 342 340 339 339 339 339 340 340 338 338 337 332 327 323 313 299
226 239 240 236 231 227 233 234 221 231 252 273 272 255 265 277 285 292 295 296 301 308 315 322 327 330 334 339 339 340 341 339 338 338 338 339 339 337 334 331 327 325 317 305
211 228 237 241 235 230 227 231 231 226 238 255 264 266 258 267 287 295 295 295 298 304 309 319 325 327 330 334 335 336 337 338 339 339 338 338 337 336 334 331 322 321 318 311
211 218 227 235 237 234 232 227 226 230 228 242 264 266 258 262 276 290 293 292 294 295 301 309 316 322 324 328 331 331 333 334 334 332 330 330 330 329 329 327 326 323 320 319
215 217 221 234 242 237 234 236 232 231 231 229 246 275 275 275 284 285 286 287 289 292 298 302 310 316 320 323 326 327 328 330 330 327 326 323 323 324 322 321 317 318 317 314
218 218 218 223 237 241 232 232 233 236 242 241 242 259 265 273 272 276 282 286 290 294 297 298 304 311 317 322 324 325 327 328 328 326 323 321 321 322 320 319 315 311 311 310
221 222 220 219 233 246 248 240 233 226 233 240 243 256 269 276 269 272 278 283 284 286 291 293 301 306 312 316 321 325 326 327 328 327 324 320 319 319 319 317 315 310 309 306
221 223 223 216 215 227 246 250 240 229 224 230 237 247 258 267 266 269 278 282 283 284 287 289 293 300 307 310 314 319 321 324 325 325 324 322 318 318 317 314 312 313 310 306
223 224 225 221 216 220 229 236 240 238 231 227 230 241 247 252 256 264 272 278 279 280 283 286 290 296 301 304 308 312 316 319 322 323 323 322 320 317 317 316 312 311 308 303
224 225 226 226 222 224 230 231 232 235 238 234 234 239 247 252 258 264 268 270 273 275 277 282 287 292 297 300 305 308 311 316 319 319 320 320 318 316 317 316 313 310 309 306
226 226 227 227 224 228 231 234 234 234 234 233 234 236 241 249 256 263 266 267 268 271 273 278 283 289 293 298 301 304 307 311 314 316 316 318 316 315 314 313 313 308 305 306
225 225 225 224 225 232 233 231 229 229 229 228 231 237 243 249 255 260 263 264 265 269 271 274 278 284 288 292 296 300 302 306 310 313 314 315 314 313 312 310 310 309 305 303
226 224 223 222 220 223 232 234 230 230 233 231 232 238 242 246 252 258 260 261 263 267 270 272 275 280 284 289 293 296 299 302 306 308 310 311 312 312 310 311 311 311 307 305
227 225 223 221 222 225 225 223 226 228 235 238 240 242 246 250 255 257 259 261 264 267 269 271 273 277 281 286 290 293 296 299 303 305 306 307 310 311 310 309 308 308 308 306
229 228 224 221 220 226 229 226 228 230 235 241 243 245 249 252 253 255 257 260 263 266 269 270 272 275 279 284 288 291 294 297 301 304 305 306 308 309 309 308 305 305 305 305
226 225 224 223 222 224 228 230 233 237 241 244 246 249 251 252 253 255 257 259 261 263 267 268 270 273 276 280 283 287 291 294 299 302 303 304 306 308 307 306 305 304 303 304
222 220 219 222 224 227 229 232 234 238 241 244 247 249 251 252 253 255 257 259 260 262 264 266 269 271 274 277 280 284 288 291 294 297 299 302 304 305 304 303 303 302 303 303
220 220 221 225 230 232 233 235 237 241 244 246 246 248 250 252 252 254 256 258 259 261 263 266 268 270 273 275 279 282 285 288 290 293 296 299 301 302 301 301 301 301 301 302
221 221 223 227 231 235 236 237 240 243 245 246 247 248 249 250 252 253 256 257 259 261 263 266 267 269 271 274 278 280 281 285 289 292 294 296 297 299 300 300 300 300 300 300
Height
5926 5929 5931 5934 5937 5940 5942 5945 5947 5946 5944 5943 5944 5944 5942 5940 5938 5936 5934 5931 5930 5928 5926 5924 5922 5920 5917 5915 5913 5911 5909 5907 5905 5904 5902 5901 5901 5900 5900 5900 5900 5900 5900 5901
5925 5927 5930 5933 5935 5937 5940 5943 5945 5945 5943 5942 5943 5943 5942 5940 5938 5937 5934 5932 5930 5928 5926 5924 5922 5920 5918 5915 5913 5911 5909 5907 5906 5904 5903 5901 5900 5900 5899 5899 5899 5899 5899 5900
5923 5927 5928 5931 5933 5936 5938 5941 5944 5945 5942 5942 5943 5942 5940 5939 5938 5936 5934 5932 5930 5928 5927 5924 5922 5920 5918 5915 5913 5911 5909 5907 5906 5904 5903 5901 5900 5899 5899 5899 5899 5899 5899 5899
5921 5924 5926 5929 5931 5933 5936 5939 5939 5940 5941 5942 5944 5943 5939 5936 5936 5935 5933 5932 5929 5928 5926 5924 5922 5920 5918 5915 5913 5911 5909 5907 5905 5904 5902 5901 5900 5898 5898 5897 5897 5897 5897 5898
5918 5921 5923 5926 5929 5931 5934 5935 5937 5938 5939 5940 5942 5942 5940 5936 5933 5934 5932 5931 5929 5927 5926 5924 5922 5920 5918 5915 5913 5911 5909 5907 5905 5903 5902 5900 5899 5898 5897 5896 5895 5896 5896 5896
5915 5918 5920 5923 5926 5928 5930 5933 5934 5935 5937 5939 5940 5941 5939 5934 5933 5933 5931 5930 5929 5927 5925 5924 5922 5920 5918 5915 5913 5911 5909 5907 5904 5903 5901 5900 5898 5897 5896 5895 5895 5895 5894 5895
5911 5914 5917 5920 5923 5925 5928 5931 5933 5935 5936 5937 5939 5939 5939 5935 5933 5932 5931 5930 5928 5926 5925 5923 5921 5920 5918 5915 5913 5911 5909 5907 5905 5903 5901 5900 5898 5897 5896 5894 5894 5894 5894 5894
5908 5911 5914 5917 5920 5923 5925 5928 5932 5935 5936 5935 5935 5937 5936 5933 5932 5931 5929 5928 5927 5925 5924 5922 5921 5919 5917 5915 5913 5911 5909 5907 5905 5903 5901 5900 5898 5897 5895 5894 5893 5893 5893 5893
5906 5909 5911 5913 5916 5920 5922 5925 5929 5932 5933 5935 5934 5933 5932 5930 5930 5929 5928 5926 5925 5924 5922 5921 5920 5918 5917 5915 5913 5911 5909 5907 5905 5903 5901 5900 5898 5896 5895 5894 5893 5892 5892 5892
5902 5906 5908 5909 5912 5915 5919 5923 5926 5928 5930 5932 5932 5931 5929 5927 5927 5926 5925 5924 5923 5922 5920 5919 5918 5917 5916 5914 5912 5910 5908 5906 5905 5903 5901 5899 5898 5896 5895 5893 5892 5891 5891 5890
5896 5901 5905 5906 5907 5912 5915 5918 5921 5924 5927 5929 5930 5929 5923 5923 5924 5924 5923 5922 5921 5920 5919 5918 5916 5915 5914 5913 5911 5909 5908 5906 5904 5902 5900 5899 5897 5896 5894 5893 5892 5890 5889 5889
5890 5895 5900 5902 5904 5907 5911 5913 5917 5919 5922 5924 5926 5927 5922 5921 5922 5922 5921 5919 5918 5917 5916 5915 5915 5913 5912 5911 5910 5908 5906 5905 5903 5901 5899 5898 5896 5895 5893 5892 5891 5890 5888 5887
5884 5889 5894 5898 5902 5903 5905 5909 5912 5916 5919 5920 5924 5925 5919 5920 5920 5919 5918 5917 5917 5915 5914 5914 5913 5912 5910 5910 5908 5907 5905 5903 5901 5900 5898 5896 5895 5893 5892 5890 5889 5888 5887 5886
5878 5882 5888 5895 5898 5900 5901 5904 5907 5911 5914 5917 5920 5919 5917 5916 5915 5915 5915 5915 5915 5914 5913 5912 5910 5910 5909 5908 5907 5905 5903 5902 5900 5898 5896 5895 5893 5891 5890 5888 5887 5885 5884 5883
5870 5875 5881 5887 5892 5896 5898 5899 5902 5905 5909 5913 5916 5917 5915 5912 5911 5910 5911 5911 5912 5911 5911 5910 5909 5908 5907 5906 5905 5903 5902 5900 5898 5896 5894 5893 5891 5889 5887 5886 5884 5883 5881 5880
5863 5869 5874 5880 5885 5889 5893 5895 5898 5901 5904 5907 5910 5911 5909 5907 5906 5907 5908 5908 5908 5908 5908 5907 5906 5906 5904 5903 5902 5901 5900 5898 5896 5894 5892 5890 5888 5886 5885 5883 5881 5880 5878 5877
5857 5863 5868 5874 5879 5883 5886 5890 5893 5896 5899 5902 5905 5906 5904 5902 5902 5903 5904 5905 5904 5904 5904 5904 5903 5902 5901 5900 5899 5899 5897 5895 5893 5891 5889 5887 5885 5883 5882 5880 5878 5876 5875 5873
5852 5857 5862 5868 5873 5876 5882 5885 5888 5890 5893 5896 5897 5897 5897 5896 5897 5899 5900 5900 5900 5900 5900 5900 5900 5899 5898 5897 5896 5895 5894 5893 5891 5889 5887 5884 5882 5880 5879 5876 5875 5873 5871 5870
5844 5850 5856 5861 5865 5870 5875 5878 5881 5884 5886 5889 5889 5889 5890 5891 5892 5893 5894 5895 5895 5896 5896 5896 5896 5896 5895 5894 5893 5892 5891 5889 5887 5885 5883 5881 5879 5877 5875 5873 5871 5868 5867 5865
5838 5843 5850 5854 5859 5864 5869 5871 5874 5878 5878 5880 5881 5882 5883 5885 5886 5888 5888 5889 5890 5891 5891 5892 5892 5891 5891 5890 5889 5888 5887 5885 5883 5881 5879 5877 5875 5873 5870 5868 5866 5864 5862 5861
5831 5836 5842 5847 5852 5856 5858 5861 5866 5870 5870 5871 5873 5876 5877 5878 5880 5882 5883 5884 5885 5885 5886 5887 5887 5887 5886 5885 5884 5883 5882 5881 5879 5877 5875 5873 5870 5868 5866 5864 5862 5860 5858 5856
5825 5831 5836 5841 5845 5850 5850 5853 5857 5859 5861 5864 5867 5868 5870 5872 5874 5875 5877 5878 5879 5880 5881 5881 5881 5881 5881 5880 5879 5878 5877 5876 5874 5872 5870 5868 5866 5863 5861 5859 5856 5855 5853 5851
5818 5824 5829 5833 5837 5839 5842 5846 5848 5852 5855 5858 5860 5862 5864 5866 5868 5870 5871 5872 5873 5874 5875 5875 5875 5875 5875 5874 5874 5873 5872 5870 5869 5867 5865 5863 5861 5858 5856 5853 5851 5849 5847 5845
5810 5815 5819 5823 5826 5830 5834 5837 5840 5843 5848 5851 5853 5855 5858 5859 5861 5863 5864 5865 5867 5868 5868 5869 5869 5869 5869 5868 5868 5867 5866 5865 5863 5861 5859 5857 5855 5853 5850 5848 5846 5843 5841 5839
5800 5806 5811 5815 5818 5821 5825 5830 5832 5836 5840 5843 5845 5848 5850 5852 5854 5856 5857 5859 5860 5861 5862 5862 5862 5862 5862 5862 5861 5860 5859 5858 5857 5855 5853 5851 5849 5847 5844 5842 5840 5837 5835 5833
5792 5797 5802 5806 5810 5813 5817 5821 5825 5829 5832 5835 5838 5840 5842 5845 5846 5848 5850 5851 5853 5853 5854 5855 5855 5855 5855 5855 5854 5853 5852 5851 5850 5848 5847 5845 5843 5840 5838 5836 5834 5831 5829 5827